[[{"header":{"parameterUnit":"m.s-1","parameterCategory":1,"la1":30.2992,"la2":30.254,"lo1":-89.0895,"lo2":-89.0443,"dy":0.0025,"dx":0.0025,"nx":19,"ny":19,"refTime":"2026-03-11T09:00:00:Z","depth":0,"parameterNumber":2,"parameterNumberName":"U-component_of_WINDS"},"data":[0,0,0,-2.7804,-2.7806,-2.7882,-2.7883,-2.798,-2.7981,0,0,0,0,0,0,0,0,0,0,0,-2.7781,-2.7781,-2.7804,-2.7806,-2.7882,-2.7883,-2.798,-2.7981,0,0,0,0,0,0,0,0,0,0,0,-2.778,-2.7781,-2.7782,-2.7806,-2.7882,-2.7883,-2.798,-2.7922,0,0,0,0,0,0,0,0,0,0,-2.7848,-2.7826,-2.7781,-2.7782,-2.7806,-2.7882,-2.7883,-2.792,-2.7926,-2.7946,0,-2.7963,0,-2.7974,-2.7988,-2.7988,0,0,0,-2.7806,-2.7821,-2.7842,-2.7782,-2.7807,-2.7882,-2.7848,-2.7923,-2.793,-2.7954,-2.7964,-2.7968,-2.7975,-2.7988,-2.7989,-2.81,-2.8101,0,0,-2.7802,-2.7794,-2.7837,-2.7846,-2.7834,-2.7845,-2.785,-2.7928,-2.7938,-2.7964,-2.797,-2.7977,-2.7989,-2.799,-2.81,-2.81,0,0,0,-2.7789,-2.7791,-2.7811,-2.7842,-2.7856,-2.7848,-2.7853,-2.7935,-2.7941,-2.7971,-2.7978,-2.799,-2.7991,-2.8099,-2.81,-2.8117,0,0,0,-2.7787,-2.7784,-2.7809,-2.7805,-2.7855,-2.7896,-2.7858,-2.7936,-2.7945,-2.7977,-2.799,-2.7992,-2.8099,-2.81,-2.8115,-2.8126,0,0,0,-2.7776,-2.7783,-2.7794,-2.7804,-2.7837,-2.7895,-2.7907,-2.7938,-2.7949,-2.7988,-2.7992,-2.8098,-2.81,-2.8114,-2.8123,-2.8153,0,0,0,-2.7762,-2.7808,-2.7794,-2.7848,-2.7836,-2.7905,-2.7906,-2.7958,-2.7994,-2.799,-2.8099,-2.81,-2.8113,-2.8122,-2.8151,-2.8175,-2.8184,0,0,-2.7816,-2.7814,-2.7846,-2.7836,-2.7906,-2.7894,-2.7967,-2.8006,-2.8017,-2.8072,-2.8075,-2.8116,-2.8123,-2.8152,-2.8242,-2.825,0,0,0,-2.7861,-2.7884,-2.7904,-2.7937,-2.7969,-2.7997,-2.8027,-2.8042,-2.8089,-2.8044,-2.8135,-2.814,-2.8157,-2.8169,-2.8175,-2.819,-2.8105,-2.8105,-2.8105,-2.7925,-2.7936,-2.7991,-2.8012,-2.8044,-2.8075,-2.8102,-2.8128,-2.813,-2.8151,-2.8167,-2.822,-2.8234,-2.8239,-2.8254,-2.8182,-2.8182,-2.8182,-2.8182,-2.8004,-2.8038,-2.804,-2.8094,-2.8106,-2.8151,-2.8183,-2.8183,-2.8227,-2.8209,-2.8225,-2.8203,-2.8247,-2.8261,-2.8183,-2.8183,-2.8183,-2.8183,-2.8183,-2.8046,-2.8064,-2.8082,-2.8132,-2.8169,-2.819,-2.8232,-2.8242,-2.8251,-2.8267,-2.8285,-2.8285,-2.8285,-2.8275,-2.8275,-2.8276,-2.8276,-2.8276,-2.8276,-2.8083,-2.8102,-2.8136,-2.8174,-2.8197,-2.8229,-2.8261,-2.8284,-2.8312,-2.8316,-2.8316,-2.8316,-2.8249,-2.8231,-2.8279,-2.8278,-2.8278,-2.8278,-2.8278,-2.8157,-2.8142,-2.8194,-2.8217,-2.8263,-2.8299,-2.8312,-2.8358,-2.8379,-2.84,-2.8397,-2.8346,-2.8345,-2.834,-2.8325,-2.8395,-2.8395,-2.8395,-2.8395,-2.8192,-2.8192,-2.8248,-2.8285,-2.8322,-2.8338,-2.8398,-2.8424,-2.8448,-2.8462,-2.8454,-2.8436,-2.843,-2.8433,-2.8426,-2.8412,-2.8502,-2.8502,-2.8502,-2.8237,-2.8242,-2.8291,-2.8314,-2.8351,-2.8382,-2.8438,-2.848,-2.8505,-2.8506,-2.8473,-2.8468,-2.8439,-2.8429,-2.8428,-2.8417,-2.8392,0,0]},{"header":{"parameterUnit":"m.s-1","parameterCategory":1,"la1":30.2992,"la2":30.254,"lo1":-89.0895,"lo2":-89.0443,"dy":0.0025,"dx":0.0025,"nx":19,"ny":19,"refTime":"2026-03-11T09:00:00:Z","depth":0,"parameterNumber":3,"parameterNumberName":"V-component_of_WINDS"},"data":[0,0,0,4.5233,4.5234,4.5263,4.5263,4.5301,4.5302,0,0,0,0,0,0,0,0,0,0,0,4.5225,4.5226,4.5233,4.5234,4.5263,4.5263,4.5301,4.5302,0,0,0,0,0,0,0,0,0,0,0,4.5225,4.5226,4.5226,4.5234,4.5263,4.5263,4.5301,4.5279,0,0,0,0,0,0,0,0,0,0,4.5251,4.5244,4.5225,4.5226,4.5234,4.5263,4.5263,4.5278,4.528,4.5289,0,4.5297,0,4.53,4.5304,4.5305,0,0,0,4.5233,4.5242,4.5249,4.5226,4.5234,4.5263,4.525,4.5279,4.5282,4.5292,4.5297,4.5299,4.5301,4.5305,4.5305,4.536,4.536,0,0,4.5232,4.5231,4.5247,4.5251,4.5246,4.5249,4.525,4.5281,4.5286,4.5297,4.53,4.5301,4.5305,4.5305,4.5359,4.536,0,0,0,4.5228,4.523,4.5236,4.5249,4.5255,4.5249,4.5252,4.5285,4.5287,4.53,4.5302,4.5305,4.5306,4.5359,4.5359,4.5374,0,0,0,4.5227,4.5227,4.5235,4.5235,4.5254,4.527,4.5255,4.5285,4.5288,4.5302,4.5305,4.5306,4.5359,4.5359,4.5373,4.5381,0,0,0,4.5223,4.5227,4.5231,4.5235,4.5247,4.5269,4.5273,4.5286,4.529,4.5305,4.5306,4.5358,4.5359,4.5372,4.538,4.5397,0,0,0,4.5219,4.5242,4.5231,4.5258,4.5247,4.5278,4.5273,4.5296,4.5311,4.5305,4.5359,4.5359,4.5372,4.5379,4.5396,4.5413,4.5419,0,0,4.5247,4.5245,4.5261,4.5252,4.5285,4.5274,4.5309,4.5322,4.5324,4.5348,4.5349,4.5374,4.5379,4.5397,4.5454,4.5459,0,0,0,4.5269,4.5281,4.529,4.5305,4.5317,4.5329,4.5337,4.5343,4.5364,4.5336,4.5384,4.5387,4.5398,4.5406,4.541,4.542,4.5363,4.5363,4.5363,4.5307,4.531,4.5337,4.5345,4.5359,4.537,4.5382,4.5392,4.5388,4.54,4.5407,4.5441,4.5451,4.5454,4.5464,4.5415,4.5415,4.5415,4.5415,4.535,4.5367,4.5366,4.5392,4.5395,4.5417,4.5429,4.5427,4.5449,4.5435,4.5444,4.5431,4.5459,4.5469,4.5416,4.5416,4.5416,4.5416,4.5416,4.5376,4.5385,4.5393,4.5417,4.5435,4.5442,4.5464,4.5466,4.5467,4.5476,4.5486,4.5486,4.5487,4.5481,4.5481,4.5481,4.5481,4.5481,4.5481,4.54,4.5408,4.5427,4.5444,4.5456,4.5471,4.5485,4.5496,4.5509,4.5509,4.5509,4.5507,4.5461,4.5451,4.5483,4.5483,4.5482,4.5482,4.5482,4.5444,4.5435,4.5463,4.5476,4.5498,4.5518,4.5521,4.5545,4.5555,4.5566,4.5562,4.5528,4.5526,4.5522,4.5514,4.556,4.556,4.556,4.556,4.5467,4.5466,4.5498,4.5518,4.5537,4.5543,4.5578,4.559,4.56,4.5607,4.56,4.5589,4.5585,4.5585,4.558,4.5572,4.5633,4.5633,4.5633,4.5495,4.5497,4.5526,4.5537,4.5556,4.5572,4.5605,4.5629,4.5638,4.5636,4.5613,4.561,4.5591,4.5584,4.5581,4.5573,4.5559,0,0]}]]